Weather History for KHPN - April, 2013

Change the Weather History Date:

Thursday, April 4, 2013

  Actual Average (KLGA) Record (KLGA)
Temperature  
Mean Temperature 39 °F 48 °F  
Max Temperature 51 °F 57 °F 76 °F (2010)
Min Temperature 28 °F 41 °F 24 °F (1954)
Degree Days  
Heating Degree Days 26 17  
Month to date heating degree days 69  
Since 1 July heating degree days 4205  
Cooling Degree Days 0 0  
Month to date cooling degree days 0  
Year to date cooling degree days 0  
Moisture  
Dew Point 19 °F    
Average Humidity 47    
Maximum Humidity 73    
Minimum Humidity 28    
Precipitation  
Precipitation 0.00 in 0.14 in 1.74 in (1987)
Month to date precipitation 0.56  
Year to date precipitation 10.46  
Snow  
Snow 0.00 in 0.10 in 5.40 in (1957)
Month to date snowfall 0.2  
Since 1 July snowfall 26.6  
Snow Depth -    
Sea Level Pressure  
Sea Level Pressure 30.25 in    
Wind  
Wind Speed 9 mph (SW)    
Max Wind Speed 18 mph    
Max Gust Speed 22 mph    
Visibility 10 miles    
Events      
T = Trace of Precipitation, MM = Missing Value Source: NWS Daily Summary

Daily Weather History Graph

Daily Weather History Graph

Search for Another Location

Airport or City:

Trip Planner

Search our weather history database for the weather conditions in past years. The results will help you decide how hot, cold, wet, or windy it might be!

Date:

Astronomy

Apr. 04, 2013 Rise Set
Actual Time 6:32 AM EDT 7:23 PM EDT
Civil Twilight 6:04 AM EDT 7:51 PM EDT
Nautical Twilight 5:31 AM EDT 8:24 PM EDT
Astronomical Twilight 4:57 AM EDT 8:58 PM EDT
Moon 3:00 AM EDT (4/4) 1:35 PM EDT (4/4)
Length of Visible Light 13h 46m
Length of Day
12h 50m
Waning Crescent, 34% of the Moon is Illuminated
Apr 4
Waning Crescent
Apr 10
New
Apr 18
First Quarter
Apr 25
Full
May 2
Last Quarter

Hourly Weather History & Observations

Time (EDT) Temp. Windchill Dew Point Humidity Pressure Visibility Wind Dir Wind Speed Gust Speed Precip Events Conditions
12:56 AM 33.1 °F 21.9 °F 10.9 °F 40% 30.26 in 10.0 mi NW 18.4 mph - N/A   Clear
1:56 AM 33.1 °F 23.4 °F 10.9 °F 40% 30.26 in 10.0 mi NNW 13.8 mph 21.9 mph N/A   Clear
2:56 AM 30.9 °F 25.2 °F 12.0 °F 46% 30.27 in 10.0 mi WNW 5.8 mph - N/A   Clear
3:56 AM 30.0 °F 26.5 °F 12.0 °F 47% 30.30 in 10.0 mi West 3.5 mph - N/A   Clear
4:56 AM 28.0 °F - 12.9 °F 53% 30.31 in 10.0 mi Calm Calm - N/A   Clear
5:56 AM 28.0 °F 24.2 °F 14.0 °F 56% 30.33 in 10.0 mi SW 3.5 mph - N/A   Clear
6:56 AM 30.0 °F 24.1 °F 14.0 °F 51% 30.36 in 10.0 mi West 5.8 mph - N/A   Clear
7:56 AM 33.1 °F 26.9 °F 15.1 °F 48% 30.38 in 10.0 mi West 6.9 mph - N/A   Clear
8:56 AM 35.1 °F 29.3 °F 16.0 °F 46% 30.37 in 10.0 mi NW 6.9 mph - N/A   Clear
9:56 AM 37.0 °F - 15.1 °F 41% 30.35 in 10.0 mi Calm Calm - N/A   Clear
10:56 AM 39.0 °F 35.7 °F 15.1 °F 38% 30.34 in 10.0 mi Variable 4.6 mph - N/A   Clear
11:56 AM 43.0 °F 40.3 °F 17.1 °F 35% 30.32 in 10.0 mi Variable 4.6 mph - N/A   Clear
12:56 PM 46.0 °F 43.9 °F 17.1 °F 31% 30.28 in 10.0 mi WSW 4.6 mph - N/A   Clear
1:56 PM 48.9 °F - 17.1 °F 28% 30.25 in 10.0 mi Variable 5.8 mph - N/A   Clear
2:56 PM 50.0 °F - 18.0 °F 28% 30.21 in 10.0 mi Variable 6.9 mph - N/A   Clear
3:56 PM 50.0 °F - 19.0 °F 29% 30.18 in 10.0 mi South 10.4 mph - N/A   Clear
4:56 PM 46.9 °F - 21.0 °F 36% 30.17 in 10.0 mi South 10.4 mph 19.6 mph N/A   Mostly Cloudy
5:56 PM 44.1 °F 38.6 °F 24.1 °F 45% 30.16 in 10.0 mi South 10.4 mph 18.4 mph N/A   Clear
6:56 PM 41.0 °F 34.3 °F 25.0 °F 53% 30.17 in 10.0 mi South 11.5 mph 17.3 mph N/A   Clear
7:56 PM 39.9 °F 35.8 °F 28.0 °F 63% 30.16 in 10.0 mi South 5.8 mph - N/A   Clear
8:56 PM 39.9 °F 35.8 °F 30.0 °F 68% 30.14 in 10.0 mi SSE 5.8 mph - N/A   Clear
9:56 PM 37.9 °F 32.7 °F 30.0 °F 73% 30.12 in 10.0 mi SSE 6.9 mph - N/A   Clear
10:56 PM 39.9 °F 34.5 °F 30.0 °F 68% 30.11 in 10.0 mi South 8.1 mph 16.1 mph N/A   Clear
11:56 PM 39.9 °F 37.8 °F 28.9 °F 65% 30.08 in 10.0 mi South 3.5 mph - N/A   Clear